Hourly Data Report for September 18, 2017

All times are specified in Local Standard Time (LST). Add 1 hour to adjust for Daylight Saving Time where and when it is observed.

ALGONQUIN PARK EAST GATE
ONTARIO

45°32'00.000" N
78°16'00.000" W
397.00 m
6080192
71581
TNK

Download Data

Hourly Data (September 2017)
Hourly Data Report for September 18, 2017
Temp Definition
°C
Dew Point Temp Definition
°C
Rel Hum Definition
%
Wind Dir Definition
10's deg

Wind Spd Definition
km/h
Visibility Definition
km
Stn Press Definition
kPa
Hmdx Definition


Wind Chill Definition


Weather Definition


TIME
00:00 13.0 11.6 91 LegendMM LegendMM   97.19     LegendNANA
01:00 12.3 11.0 92 LegendMM LegendMM   97.18     LegendNANA
02:00 11.7 10.4 92 LegendMM LegendMM   97.16     LegendNANA
03:00 11.5 10.3 92 LegendMM LegendMM   97.16     LegendNANA
04:00 11.9 10.7 93 LegendMM LegendMM   97.17     LegendNANA
05:00 11.9 10.7 92 LegendMM LegendMM   97.19     LegendNANA
06:00 11.8 10.6 92 LegendMM LegendMM   97.19     LegendNANA
07:00 13.2 12.0 92 LegendMM LegendMM   97.18     LegendNANA
08:00 15.0 13.7 92 LegendMM LegendMM   97.20     LegendNANA
09:00 17.6 15.7 89 LegendMM LegendMM   97.20     LegendNANA
10:00 19.9 15.8 77 LegendMM LegendMM   97.21     LegendNANA
11:00 19.9 16.5 81 LegendMM LegendMM   97.21     LegendNANA
12:00 20.0 16.8 82 LegendMM LegendMM   97.17 25   LegendNANA
13:00 20.7 17.3 81 LegendMM LegendMM   97.14 26   LegendNANA
14:00 21.2 17.1 77 LegendMM LegendMM   97.12 27   LegendNANA
15:00 22.3 16.8 71 LegendMM LegendMM   97.06 27   LegendNANA
16:00 21.8 17.2 75 LegendMM LegendMM   97.08 27   LegendNANA
17:00 20.0 17.6 86 LegendMM LegendMM   97.11 26   LegendNANA
18:00 19.2 17.7 91 LegendMM LegendMM   97.11     LegendNANA
19:00 18.7 17.4 92 LegendMM LegendMM   97.11     LegendNANA
20:00 18.1 16.8 92 LegendMM LegendMM   97.13     LegendNANA
21:00 17.7 16.4 92 LegendMM LegendMM   97.11     LegendNANA
22:00 17.0 15.8 93 LegendMM LegendMM   97.12     LegendNANA
23:00 17.3 16.1 93 LegendMM LegendMM   97.09     LegendNANA

Notes on Data Quality.

Legend

  • E = Estimated
  • M = Missing
  • NA = Not Available
  • ‡ = Partner data that is not subject to review by the National Climate Archives
Date modified: